{"data":{"norad_id":49027,"intl_designator":"2021-065B","name":"TIANQI-15","alt_names":[],"object_type":"PAYLOAD","status":"ACTIVE","operator":null,"country":"PRC","launch_date":"2021-07-19","launch_site_code":"XICLF","launch_vehicle":null,"mission":null,"orbit_class":"UNKNOWN","rcs_meters":null,"size_class":null,"mass_kg":null,"dimensions":null,"purposes":[],"wikipedia_slug":null,"has_3d_model":false,"image_url":null,"decayed_at":null,"tle_current":{"epoch":"2026-05-24T23:34:01.058016Z","epoch_age_seconds":70615,"freshness":"FRESH","line1":"1 49027U 21065B   26144.98195669  .00004709  00000+0  28310-3 0  9992","line2":"2 49027  34.9996 358.7549 0006104 214.9820 145.0490 15.10282674265767","mean_motion":15.10282674,"eccentricity":0.0006104,"inclination_deg":34.9996,"raan_deg":358.7549,"arg_perigee_deg":214.982,"mean_anomaly_deg":145.049,"bstar":0.0002831,"rev_number":26576,"period_min":95.346389440206,"perigee_km":531.11723763368,"apogee_km":539.55720696426,"semimajor_km":6913.474222299,"source":"CELESTRAK","updated_at":"2026-05-25T13:37:57.045905Z"}}}